Weather in Pliyevo

Russia / Republic of Ingushetia     43°17′07″N   44°50′09″E
temp.,
°C
wind,
m/s
gust,
m/s
humid.,
%
clouds,
%
prec.,
mm/h
press.,
hPa
HPBL,
m
19 may, wed
wed1900:00+13ese22880 0.0 101112
03:00+12se22840 0.0 101011
06:00+13e39820 0.0 1008252
09:00+20ene44606 0.0 1008512
12:00+23nnw22520 0.0 1008939
15:00+23nnw6560100 0.0 10111345
18:00+15nw4792100 1.2 1015505
21:00+13wsw1196100 3.3 101833
20 may, thu
thu2000:00+13ene1194100 0.1 101733
03:00+13e2293100 0.1 101761
06:00+13ese398715 0.0 1017425
09:00+18e89530 0.0 1016827
12:00+21e78470 0.0 1015868
15:00+22e67490 0.0 1014920
18:00+19e69620 0.0 1014375
21:00+13e35710 0.0 101664
21 may, fri
fri2100:00+13s11730 0.0 101510
03:00+13sse11780 0.0 101311
06:00+16e22730 0.0 101343
09:00+22ene22580 0.0 1012303
12:00+26ene34530 0.0 1010564
15:00+27ne34502 0.0 1009652
18:00+25ene22665 0.0 100938
21:00+19ese11795 0.0 101011
22 may, sat
sat2200:00+18s22712 0.0 100911
03:00+18se11545 0.0 100814
06:00+20se22581 0.0 100815
09:00+27ne22450 0.0 1006269
12:00+29ene56441 0.0 1006483
15:00+30ene45430 0.0 1005741
18:00+27nne226419 0.0 100430
21:00+21ssw2268100 0.0 100514
23 may, sun
sun2300:00+20sw3375100 0.0 100532
03:00+18wsw228394 0.0 100529
06:00+19sw3483100 0.0 1007129
09:00+25n1169100 0.0 1006559
12:00+28ne33577 0.0 10061271
15:00+28ene555814 0.0 10041284
18:00+26ne3470100 0.0 1004188
21:00+22s0178100 0.1 100611